Regional Weather Roundup
Issued by NWS

Home | Current Version | Previous Version | Graphics & Text | Print | Product List | Glossary On
Versions: 1 2 3 4 5 6 7 8 9 10 11 12 13 14 15 16 17 18 19 20 21 22 23 24 25 26 27 28 29 30 31 32 33 34 35 36 37 38 39 40 41 42 43 44 45 46 47 48 49 50
000
ASUS43 KIND 271309
RWRIN

WEATHER ROUNDUP FOR INDIANA
NATIONAL WEATHER SERVICE INDIANAPOLIS IN
900 AM EDT WED AUG 27 2014

NOTE: "FAIR" INDICATES FEW OR NO CLOUDS BELOW 12,000 FEET WITH NO
SIGNIFICANT WEATHER AND/OR OBSTRUCTIONS TO VISIBILITY.

* - STATION DOES NOT REPORT WEATHER SUCH AS PRECIPITATION OR FOG.

+ - STATION NOT QUALITY CONTROLLED BY THE NATIONAL WEATHER SERVICE.
    USE DATA WITH CAUTION...ESPECIALLY DEWPOINT AND RELATIVE
    HUMIDITY OBSERVATIONS.

INZ001>003-010>013-019-020-271400-
NORTHWEST INDIANA

CITY           SKY/WX    TMP DP  RH WIND       PRES   REMARKS
GARY /AIRPORT/ MOSUNNY   72  63  73 NE6       30.15R
KNOX *+        SUNNY     68  63  84 NE5       30.13R
LA PORTE +     SUNNY     68  61  78 NE6       30.15R
MICHIGAN CITY+ MOSUNNY   64  64 100 N3        30.15R
MONTICELLO +   CLOUDY    69  68  98 NE5       30.12S FOG
RENSSELAER +   MOSUNNY   70  66  88 NE3       30.13S
VALPARAISO     SUNNY     69  62  78 NE3       30.15R

$$

LMZ046-743>745-271400-
SOUTHERN LAKE MICHIGAN

STATION/POSITION TIME  TEMP WIND        PRES
                       AIR  DIR/SP/G
                 (UTC) (F)  (DEG/KT/KT) (MB)
MICHIGAN CITY    1300   69   30/  9/ 11   N/A

$$

INZ004-005-014>016-021>024-271400-
NORTH CENTRAL INDIANA

CITY           SKY/WX    TMP DP  RH WIND       PRES   REMARKS
GOSHEN         SUNNY     67  62  84 NE7       30.13S
LOGANSPORT +   CLOUDY    68  68 100 CALM      30.13S FOG
PERU/GRISSOM   DRIZZLE   70  70 100 NE5       30.12F
ROCHESTER +    PTSUNNY   70  68  94 NE3       30.13S FOG
SOUTH BEND     MOSUNNY   68  61  78 N9        30.15R
WARSAW +       MOSUNNY   66  64  94 CALM      30.13R

$$

INZ006>009-017-018-025>027-271400-
NORTHEAST INDIANA

CITY           SKY/WX    TMP DP  RH WIND       PRES   REMARKS
ANGOLA *+      MOSUNNY   66  57  72 N3        30.14R
AUBURN +       SUNNY     68  63  83 N3        30.14R
FORT WAYNE     PTSUNNY   72  68  87 CALM      30.13R FOG
HUNTINGTON +   CLOUDY    69  69 100 CALM      30.13R FOG

$$

INZ028-029-035-036-043>045-051>053-271400-
WEST CENTRAL INDIANA

CITY           SKY/WX    TMP DP  RH WIND       PRES   REMARKS
GREENCASTLE +  SUNNY     72  70  94 CALM      30.11S
LAFAYETTE      PTSUNNY   69  69 100 NE6       30.11S FOG
TERRE HAUTE    SUNNY     73  69  87 CALM      30.10S

$$

INZ030>032-037>040-046>048-054>057-064-065-271400-
CENTRAL INDIANA

CITY           SKY/WX    TMP DP  RH WIND       PRES   REMARKS
ANDERSON       SUNNY     72  70  94 CALM      30.12
CP ATTERBURY + MOSUNNY   72  70  94 CALM      30.11S
COLUMBUS       SUNNY     72  72 100 CALM      30.11S FOG
FRANKFORT +    PTSUNNY  N/A N/A N/A N5        30.14R HAZE
INDIANAPOLIS   MOSUNNY   75  70  84 CALM      30.10R
-EAGLE CREEK   MOSUNNY   75  69  81 N5        30.11R
KOKOMO *+      CLOUDY    70  68  94 E6        30.13R VSB 1
MARION +       CLOUDY    69  69  98 NE5       30.14R FOG
MT COMFORT *+    N/A     72 N/A N/A NE3       30.12R
SHELBYVILLE    SUNNY     74  70  87 CALM      30.10S
ZIONSVILLE +   MOSUNNY   72  67  84 N5        30.13S

$$

INZ033-034-041-042-049-050-058-059-271400-
EAST CENTRAL INDIANA

CITY           SKY/WX    TMP DP  RH WIND       PRES   REMARKS
MUNCIE         MOSUNNY   73  69  87 NE6       30.12R

$$

INZ060-061-067>069-081>083-085>088-271400-
SOUTHWEST INDIANA

CITY           SKY/WX    TMP DP  RH WIND       PRES   REMARKS
EVANSVILLE     SUNNY     77  71  82 CALM      30.10S
WASHINGTON +   SUNNY     73  73  97 CALM      30.10R

$$

INZ062-063-066-070>080-084-089>092-271400-
SOUTH CENTRAL AND SOUTHEAST INDIANA

CITY           SKY/WX    TMP DP  RH WIND       PRES   REMARKS
BEDFORD +      MOSUNNY   73  68  83 CALM      30.11
BLOOMINGTON    SUNNY     74  70  87 S3        30.11S
NORTH VERNON + MOSUNNY   73  73 100 CALM      30.12  FOG

$$



USA.gov is the U.S. government's official web portal to all federal, state and local government web resources and services.